Location: Innerarity Island Observatory
(30.3139°N, 87.4867°W)
Time: 20:26:14
(UTC-05:00)

Amateur Radio Satellites - All Passes

Search period start: 28 March 2017 19:56
Search period end: 29 March 2017 19:56
Location: Innerarity Island Observatory, 30.3139°N, 87.4867°W

Satellite Date Start Highest point End Downlink Frequencies (MHz)
Time Altitude Azimuth
ISS 28 Mar 20:05:22 20:08:10 26° 320° (NW) 20:10:58 437.550
AO-85 28 Mar 20:17:05 20:21:40 75° 297° (WNW) 20:25:55 145.980
AAUSAT CUBESAT 2 28 Mar 20:21:24 20:25:28 70° 77° (ENE) 20:29:33 437.432
UWE-3 28 Mar 20:24:18 20:28:55 66° 76° (ENE) 20:33:30 435.000/436.395/437.385
XW-2A 28 Mar 20:28:50 20:30:36 13° 265° (W) 20:32:22 145.665 - 145.685
M-CUBED/EXP-1 PRIME 28 Mar 20:31:13 20:33:58 16° 296° (WNW) 20:36:43 437.505
YUBILEINY 28 Mar 20:38:53 20:45:30 25° 276° (W) 20:52:09 435.215
STRAND 1 28 Mar 20:39:27 20:44:22 50° 287° (WNW) 20:49:15 437.568
SEEDS 28 Mar 20:45:04 20:48:28 24° 263° (W) 20:51:53 437.485
Oscar 11 28 Mar 20:48:02 20:52:12 49° 76° (ENE) 20:56:22 .
HO-68 28 Mar 20:55:50 21:01:31 25° 263° (W) 21:07:14 435.675
CUTE 1.7 + AOD 2 28 Mar 20:59:04 21:00:14 11° 267° (W) 21:01:24 437.475
ZACube-1 28 Mar 20:59:35 21:04:10 85° 258° (WSW) 21:08:41 437.345
CUBEBUG 2 28 Mar 21:03:55 21:07:52 26° 264° (W) 21:11:49 437.445
BEESAT 3 28 Mar 21:11:05 21:14:36 33° 112° (ESE) 21:18:09 437.485
DELFI C3 28 Mar 21:19:29 21:22:52 29° 74° (ENE) 21:26:17 145.870
AO-73 28 Mar 21:26:49 21:31:08 43° 261° (W) 21:35:25 145.935
BEESAT 2 28 Mar 21:32:50 21:35:50 21° 110° (ESE) 21:38:51 435.950
PRISM 28 Mar 21:33:08 21:35:56 17° 96° (E) 21:38:45 437.425
RS-15 28 Mar 21:43:24 21:55:30 63° 59° (ENE) 22:06:57 29.354- 29.394
LO-87 28 Mar 22:11:13 22:12:04 11° 69° (ENE) 22:12:54 145.935 - 145.965
BEESAT 3 28 Mar 22:50:02 22:52:16 15° 307° (NW) 22:54:31 437.485
TIGRISAT 28 Mar 22:55:37 22:59:58 85° 100° (E) 23:04:14 435.000
DELFI C3 28 Mar 22:55:42 22:57:40 13° 266° (W) 22:59:38 145.870
UNISAT 6 28 Mar 23:06:38 23:10:56 63° 284° (WNW) 23:15:09 437.425
PRISM 28 Mar 23:07:39 23:11:09 27° 288° (WNW) 23:14:39 437.425
BEESAT 2 28 Mar 23:10:20 23:13:26 22° 304° (NW) 23:16:35 435.950
SO-50 28 Mar 23:12:41 23:16:41 31° 57° (ENE) 23:20:41 436.795
SPROUT 28 Mar 23:23:09 23:24:28 11° 68° (ENE) 23:25:47 437.525
FO-29 28 Mar 23:23:13 23:28:55 86° 102° (ESE) 23:34:09 435.910
ESTCUBE 1 28 Mar 23:29:58 23:34:23 67° 77° (ENE) 23:38:49 437.505/2401.250
POLYITAN 1 28 Mar 23:35:16 23:37:40 15° 95° (E) 23:40:02 437.675
QB50P2 28 Mar 23:39:31 23:42:29 18° 96° (E) 23:45:26 145.880/145.840
LO-87 28 Mar 23:41:56 23:45:08 31° 262° (W) 23:48:23 145.935 - 145.965
DUCHIFAT 1 28 Mar 23:47:49 23:50:35 17° 95° (E) 23:53:20 145.980
RS-15 28 Mar 23:57:11 00:07:02 31° 257° (WSW) 00:16:33 29.354- 29.394
DX 1 29 Mar 00:01:40 00:04:10 15° 68° (ENE) 00:06:41 434.975-435.025
AIST 2D 29 Mar 00:19:12 00:22:39 59° 282° (WNW) 00:26:03 435.315
50 SAT 29 Mar 00:24:17 00:27:32 42° 75° (ENE) 00:30:49 437.505
VELOX 1 29 Mar 00:31:06 00:35:30 83° 260° (W) 00:39:56 145.980
NANOSAT C BR1 29 Mar 00:34:04 00:38:17 80° 102° (ESE) 00:42:27 145.865
UKube-1 29 Mar 00:35:13 00:38:47 26° 72° (ENE) 00:42:22 .
EO-79 29 Mar 00:40:21 00:44:34 76° 282° (WNW) 00:48:44 145.935-145.965
SO-50 29 Mar 00:53:42 00:56:53 19° 250° (WSW) 01:00:04 436.795
SPROUT 29 Mar 00:55:46 00:59:54 46° 260° (W) 01:04:03 437.525
POLYITAN 1 29 Mar 01:09:43 01:13:28 31° 287° (WNW) 01:17:10 437.675
QB50P2 29 Mar 01:14:42 01:18:11 25° 288° (WNW) 01:21:39 145.880/145.840
DUCHIFAT 1 29 Mar 01:22:40 01:26:12 27° 288° (WNW) 01:29:44 145.980
BUGSAT 1 29 Mar 01:27:26 01:31:35 84° 284° (WNW) 01:35:40 437.445
DX 1 29 Mar 01:36:04 01:40:00 34° 261° (W) 01:44:00 434.975-435.025
BEESAT 29 Mar 01:44:34 01:45:08 10° 65° (ENE) 01:45:42 436.000
O/OREOS (USA 219) 29 Mar 01:47:05 01:49:32 14° 62° (ENE) 01:52:00 437.305
Oscar 19 29 Mar 01:48:33 01:53:26 41° 99° (E) 01:58:18 437.125/150
ITUPSAT 1 29 Mar 02:00:07 02:03:02 16° 68° (ENE) 02:05:56 437.325
UKube-1 29 Mar 02:11:38 02:14:43 19° 264° (W) 02:17:50 .
Gurwin Techsat 1B 29 Mar 02:24:16 02:29:28 53° 100° (E) 02:34:38 435.225
Tancredo 1 29 Mar 02:25:30 02:27:40 17° 37° (NE) 02:29:48 437.200
ISS 29 Mar 02:37:34 02:40:04 20° 38° (NE) 02:42:34 437.550
MOZHAYETS 4 29 Mar 03:10:42 03:14:56 37° 73° (ENE) 03:19:10
BEESAT 29 Mar 03:17:35 03:22:18 64° 258° (WSW) 03:27:02 436.000
O/OREOS (USA 219) 29 Mar 03:24:46 03:29:06 42° 256° (WSW) 03:33:24 437.305
Oscar 19 29 Mar 03:28:55 03:32:22 18° 292° (WNW) 03:35:49 437.125/150
ITUPSAT 1 29 Mar 03:35:59 03:40:29 40° 261° (W) 03:44:59 437.325
ITAMSAT 1 29 Mar 03:41:26 03:46:22 44° 100° (E) 03:51:17 435.822/435.867
AO-7 29 Mar 03:51:14 03:59:06 46° 102° (ESE) 04:06:55 .
Tancredo 1 29 Mar 04:00:56 04:03:49 31° 231° (SW) 04:06:41 437.200
Gurwin Techsat 1B 29 Mar 04:05:58 04:08:54 15° 294° (WNW) 04:11:50 435.225
KKS-1 29 Mar 04:08:42 04:12:41 33° 72° (ENE) 04:16:40 437.445
CUBESAT XI-V 29 Mar 04:10:52 04:14:36 25° 72° (ENE) 04:18:21 437.345
ISS 29 Mar 04:13:41 04:16:31 27° 231° (SW) 04:19:20 437.550
STARS 29 Mar 04:37:10 04:40:57 29° 72° (ENE) 04:44:46 437.465
MOZHAYETS 4 29 Mar 04:49:31 04:52:09 15° 266° (W) 04:54:46
AO-85 29 Mar 04:54:45 04:57:16 16° 55° (NE) 04:59:51 145.980
NO-84 29 Mar 05:20:20 05:23:20 74° 129° (SE) 05:26:12 435.350 FM
ITAMSAT 1 29 Mar 05:22:10 05:25:24 17° 293° (WNW) 05:28:40 435.822/435.867
M-CUBED/EXP-1 PRIME 29 Mar 05:37:13 05:39:46 18° 65° (ENE) 05:42:28 437.505
AO-7 29 Mar 05:44:25 05:51:31 33° 296° (WNW) 05:58:37 .
KKS-1 29 Mar 05:46:25 05:49:14 16° 265° (W) 05:52:04 437.445
CUBESAT XI-V 29 Mar 05:48:17 05:51:50 22° 264° (W) 05:55:26 437.345
CUTE-I 29 Mar 05:53:40 05:56:03 13° 94° (E) 05:58:23 437.470
JUGNU 29 Mar 06:00:38 06:04:45 20° 166° (SSE) 06:08:53 437.505
STRAND 1 29 Mar 06:13:57 06:15:45 12° 65° (ENE) 06:17:33 437.568
STARS 29 Mar 06:14:09 06:17:14 19° 264° (W) 06:20:21 437.465
AO-85 29 Mar 06:34:07 06:37:38 30° 247° (WSW) 06:41:19 145.980
XW-2F 29 Mar 06:39:00 06:42:35 43° 99° (E) 06:46:08 145.980 - 146.000
LilacSat-2 29 Mar 06:45:35 06:49:19 62° 101° (E) 06:53:02 437.200
DOVE 4 29 Mar 06:55:34 07:00:51 77° 283° (WNW) 07:05:56 437.250
NUDT-PHONESAT 29 Mar 06:55:42 06:59:20 63° 101° (E) 07:02:58 437.300
KAITUO 1B 29 Mar 07:06:43 07:10:24 87° 287° (WNW) 07:14:06 145.475/437.950
XW-2D 29 Mar 07:06:45 07:10:27 64° 283° (WNW) 07:14:09 145.860 - 145.880
BEESAT 3 29 Mar 07:10:06 07:14:01 51° 60° (ENE) 07:17:54 437.485
M-CUBED/EXP-1 PRIME 29 Mar 07:11:09 07:14:01 22° 260° (W) 07:17:04 437.505
XW-2B 29 Mar 07:12:48 07:16:28 54° 284° (WNW) 07:20:07 145.730 - 145.750
CUTE 1.7 + AOD 2 29 Mar 07:13:03 07:14:20 11° 93° (E) 07:15:37 437.475
XW-2C 29 Mar 07:23:18 07:26:46 37° 285° (WNW) 07:30:13 145.795 - 145.815
CUTE-I 29 Mar 07:31:07 07:36:20 57° 286° (WNW) 07:41:31 437.470
BEESAT 2 29 Mar 07:32:29 07:36:10 33° 59° (ENE) 07:39:50 435.950
YUBILEINY 29 Mar 07:34:00 07:42:43 75° 93° (E) 07:51:24 435.215
JUGNU 29 Mar 07:48:16 07:53:14 29° 176° (S) 07:58:14 437.505
STRAND 1 29 Mar 07:49:13 07:54:19 64° 258° (WSW) 07:59:26 437.568
XW-2A 29 Mar 07:54:33 07:57:50 51° 100° (E) 08:01:05 145.665 - 145.685
PCSat 29 Mar 08:02:02 08:06:16 24° 106° (ESE) 08:10:33 145.827
SRMSAT 29 Mar 08:09:27 08:13:15 17° 164° (SSE) 08:17:03 437.500
AAUSAT CUBESAT 2 29 Mar 08:10:12 08:12:53 17° 95° (E) 08:15:35 437.432
UWE-3 29 Mar 08:20:54 08:23:53 19° 95° (E) 08:26:50 435.000/436.395/437.385
HO-68 29 Mar 08:27:55 08:35:07 85° 105° (ESE) 08:42:18 435.675
SEEDS 29 Mar 08:33:26 08:37:39 81° 100° (E) 08:41:51 437.485
Oscar 11 29 Mar 08:42:20 08:44:40 14° 94° (E) 08:47:01 .
CUTE 1.7 + AOD 2 29 Mar 08:46:18 08:50:16 41° 285° (WNW) 08:54:15 437.475
ZACube-1 29 Mar 08:54:19 08:57:50 26° 97° (E) 09:01:19 437.345
CUBEBUG 2 29 Mar 08:59:56 09:04:15 73° 282° (WNW) 09:08:24 437.445
BEESAT 2 29 Mar 09:11:26 09:13:35 14° 252° (WSW) 09:15:45 435.950
AO-73 29 Mar 09:20:27 09:24:31 52° 100° (E) 09:28:31 145.935
FO-29 29 Mar 09:28:07 09:34:07 25° 67° (ENE) 09:39:51 435.910
YUBILEINY 29 Mar 09:34:48 09:40:13 18° 289° (WNW) 09:45:39 435.215
JUGNU 29 Mar 09:36:52 09:41:46 27° 186° (S) 09:46:42 437.505
PCSat 29 Mar 09:44:32 09:49:25 34° 300° (WNW) 09:54:20 145.827
AAUSAT CUBESAT 2 29 Mar 09:44:46 09:48:18 27° 287° (WNW) 09:51:50 437.432
TIGRISAT 29 Mar 09:48:06 09:52:24 37° 73° (ENE) 09:56:41 435.000
PRISM 29 Mar 09:50:19 09:54:22 85° 258° (WSW) 09:58:28 437.425
UWE-3 29 Mar 09:56:50 10:00:15 24° 288° (WNW) 10:03:37 435.000/436.395/437.385
SRMSAT 29 Mar 09:56:53 10:01:54 28° 173° (S) 10:06:54 437.500
RS-15 29 Mar 09:56:55 09:58:58 11° 96° (E) 10:01:01 29.354- 29.394
UNISAT 6 29 Mar 09:58:55 10:03:30 54° 75° (ENE) 10:08:03 437.425
Oscar 11 29 Mar 10:16:57 10:20:50 34° 287° (WNW) 10:24:43 .
HO-68 29 Mar 10:18:25 10:21:54 14° 300° (WNW) 10:25:23 435.675
ZACube-1 29 Mar 10:31:08 10:33:53 17° 290° (WNW) 10:36:36 437.345
DELFI C3 29 Mar 10:36:04 10:40:03 72° 283° (WNW) 10:44:01 145.870
AIST 2D 29 Mar 10:48:47 10:51:15 18° 72° (ENE) 10:53:42 435.315
FO-29 29 Mar 11:10:56 11:18:37 57° 259° (W) 11:25:57 435.910
LO-87 29 Mar 11:14:29 11:17:39 27° 98° (E) 11:20:46 145.935 - 145.965
NANOSAT C BR1 29 Mar 11:20:38 11:24:14 27° 72° (ENE) 11:27:48 145.865
TIGRISAT 29 Mar 11:26:13 11:29:06 16° 265° (W) 11:31:59 435.000
JUGNU 29 Mar 11:26:29 11:30:15 17° 195° (SSW) 11:34:03 437.505
EO-79 29 Mar 11:26:54 11:30:48 35° 74° (ENE) 11:34:42 145.935-145.965
ESTCUBE 1 29 Mar 11:28:45 11:32:16 22° 96° (E) 11:35:46 437.505/2401.250
UNISAT 6 29 Mar 11:39:21 11:40:23 11° 267° (W) 11:41:25 437.425
SRMSAT 29 Mar 11:45:29 11:50:37 29° 184° (S) 11:55:45 437.500
POLYITAN 1 29 Mar 11:55:35 11:59:52 86° 77° (ENE) 12:04:10 437.675
RS-15 29 Mar 11:57:29 12:09:09 71° 112° (ESE) 12:21:20 29.354- 29.394
QB50P2 29 Mar 12:00:24 12:04:40 76° 260° (W) 12:08:57 145.880/145.840
DUCHIFAT 1 29 Mar 12:07:36 12:11:51 84° 255° (WSW) 12:16:07 145.980
BUGSAT 1 29 Mar 12:11:21 12:15:02 30° 73° (ENE) 12:18:45 437.445
AIST 2D 29 Mar 12:21:53 12:24:19 17° 264° (W) 12:26:44 435.315
VELOX 1 29 Mar 12:27:10 12:31:02 29° 98° (E) 12:34:53 145.980
SPROUT 29 Mar 12:47:04 12:51:09 43° 99° (E) 12:55:12 437.525
LO-87 29 Mar 12:49:10 12:50:46 13° 290° (WNW) 12:52:22 145.935 - 145.965
NANOSAT C BR1 29 Mar 12:56:55 12:59:52 18° 264° (W) 13:02:49 145.865
Oscar 19 29 Mar 12:59:57 13:04:29 33° 71° (ENE) 13:09:03 437.125/150
EO-79 29 Mar 13:04:25 13:06:36 14° 266° (W) 13:08:47 145.935-145.965
ESTCUBE 1 29 Mar 13:05:15 13:08:56 25° 289° (WNW) 13:12:37 437.505/2401.250
SO-50 29 Mar 13:20:59 13:25:20 39° 113° (ESE) 13:29:37 436.795
50 SAT 29 Mar 13:26:34 13:30:03 69° 283° (WNW) 13:33:33 437.505
DX 1 29 Mar 13:29:20 13:33:41 61° 101° (E) 13:38:00 434.975-435.025
SRMSAT 29 Mar 13:34:57 13:39:18 21° 193° (SSW) 13:43:38 437.500
NO-84 29 Mar 13:35:32 13:38:33 35° 48° (NE) 13:41:50 435.350 FM
Gurwin Techsat 1B 29 Mar 13:39:37 13:44:42 48° 73° (ENE) 13:49:47 435.225
BUGSAT 1 29 Mar 13:47:44 13:50:22 16° 265° (W) 13:53:01 437.445
UKube-1 29 Mar 14:02:48 14:07:08 75° 285° (WNW) 14:11:26 .
VELOX 1 29 Mar 14:04:05 14:07:14 19° 290° (WNW) 14:10:22 145.980
RS-15 29 Mar 14:12:17 14:22:34 32° 313° (NW) 14:33:12 29.354- 29.394
SPROUT 29 Mar 14:25:08 14:26:37 12° 292° (WNW) 14:28:05 437.525
Oscar 19 29 Mar 14:39:58 14:43:47 21° 264° (W) 14:47:36 437.125/150
AO-7 29 Mar 14:44:09 14:51:37 38° 65° (ENE) 14:59:04 .
ITAMSAT 1 29 Mar 14:53:43 14:58:32 38° 72° (ENE) 15:03:21 435.822/435.867
SO-50 29 Mar 15:02:41 15:05:53 18° 307° (NW) 15:09:03 436.795
MOZHAYETS 4 29 Mar 15:12:52 15:15:10 14° 94° (E) 15:17:27
NO-84 29 Mar 15:14:18 15:15:55 13° 237° (WSW) 15:17:36 435.350 FM
Gurwin Techsat 1B 29 Mar 15:21:41 15:24:47 16° 266° (W) 15:27:55 435.225
BEESAT 29 Mar 15:23:23 15:28:00 51° 100° (E) 15:32:36 436.000
ITUPSAT 1 29 Mar 15:41:47 15:46:33 82° 103° (ESE) 15:51:18 437.325
O/OREOS (USA 219) 29 Mar 15:51:55 15:56:10 43° 104° (ESE) 16:00:29 437.305
ITAMSAT 1 29 Mar 16:34:22 16:38:02 19° 264° (W) 16:41:42 435.822/435.867
AO-7 29 Mar 16:36:35 16:44:11 39° 259° (W) 16:51:49 .
MOZHAYETS 4 29 Mar 16:48:10 16:52:24 40° 286° (WNW) 16:56:40
BEESAT 29 Mar 17:03:16 17:05:16 13° 294° (WNW) 17:07:18 436.000
CUTE-I 29 Mar 17:10:21 17:12:48 13° 65° (ENE) 17:15:15 437.470
LilacSat-2 29 Mar 17:23:26 17:25:23 14° 70° (ENE) 17:27:19 437.200
NUDT-PHONESAT 29 Mar 17:31:22 17:32:58 12° 70° (ENE) 17:34:33 437.300
O/OREOS (USA 219) 29 Mar 17:33:30 17:35:45 14° 298° (WNW) 17:38:02 437.305
KKS-1 29 Mar 17:41:10 17:45:32 54° 285° (WNW) 17:49:52 437.445
KAITUO 1B 29 Mar 17:42:05 17:44:38 18° 72° (ENE) 17:47:11 145.475/437.950
XW-2D 29 Mar 17:42:42 17:45:48 24° 73° (ENE) 17:48:53 145.860 - 145.880
XW-2B 29 Mar 17:48:32 17:51:48 28° 74° (ENE) 17:55:04 145.730 - 145.750
CUBESAT XI-V 29 Mar 17:49:13 17:53:48 59° 284° (WNW) 17:58:23 437.345
YUBILEINY 29 Mar 17:52:20 17:59:28 28° 75° (ENE) 18:06:34 435.215
DOVE 4 29 Mar 17:54:43 17:59:14 55° 75° (ENE) 18:04:05 437.250
XW-2C 29 Mar 17:58:33 18:02:07 39° 75° (ENE) 18:05:40 145.795 - 145.815
STARS 29 Mar 18:07:37 18:12:00 65° 284° (WNW) 18:16:18 437.465
PCSat 29 Mar 18:37:31 18:42:51 56° 63° (ENE) 18:48:09 145.827
CUTE-I 29 Mar 18:46:57 18:52:14 62° 258° (WSW) 18:57:34 437.470
XW-2F 29 Mar 18:47:59 18:51:33 39° 261° (W) 18:55:07 145.980 - 146.000
HO-68 29 Mar 18:50:37 18:56:56 35° 67° (ENE) 19:03:15 435.675
M-CUBED/EXP-1 PRIME 29 Mar 18:53:51 18:58:15 40° 103° (ESE) 19:02:32 437.505
LilacSat-2 29 Mar 18:56:02 18:59:21 28° 262° (W) 19:02:41 437.200
Tancredo 1 29 Mar 18:56:34 18:59:41 77° 314° (NW) 19:02:50 437.200
RS-15 29 Mar 18:57:29 19:02:32 13° 26° (NNE) 19:07:31 29.354- 29.394
AO-85 29 Mar 19:03:10 19:06:44 22° 111° (ESE) 19:10:07 145.980
NUDT-PHONESAT 29 Mar 19:03:15 19:06:34 29° 262° (W) 19:09:52 437.300
ISS 29 Mar 19:12:33 19:15:44 57° 316° (NW) 19:18:57 437.550
KAITUO 1B 29 Mar 19:15:37 19:18:27 20° 263° (W) 19:21:18 145.475/437.950
XW-2D 29 Mar 19:17:37 19:19:55 15° 265° (W) 19:22:12 145.860 - 145.880
SEEDS 29 Mar 19:19:50 19:23:14 25° 72° (ENE) 19:26:38 437.485
XW-2B 29 Mar 19:24:06 19:25:59 13° 265° (W) 19:27:52 145.730 - 145.750
CUTE 1.7 + AOD 2 29 Mar 19:32:39 19:36:47 61° 76° (ENE) 19:40:56 437.475
DOVE 4 29 Mar 19:36:06 19:37:17 11° 269° (W) 19:38:29 437.250
ZACube-1 29 Mar 19:46:07 19:47:51 12° 68° (ENE) 19:49:35 437.345
